Flag for Netherlands Weather past 2 weeks in Tilburg, Netherlands

48 °F

Passing clouds.

Feels Like: 43 °F
Forecast: 45 / 55 °F
Wind: 13 mph from Southwest

Location: Gilze-Rijen

Current Time: Nov 29, 2015 at 6:32:30 AM

Latest Report: Nov 29, 2015 at 5:55 AM

Visibility: N/A

Pressure: 29.74 "Hg

Humidity: 87%

Dew point: 45 °F

Location of TilburgLocation

Historic Weather in Tilburg — Graph


Tilburg temperature yesterday

Maximum temperature yesterday: 46 °F (at 11:55 AM)
Minimum temperature yesterday: 39 °F (at 12:25 AM)
Average temperature yesterday: 43 °F

Past Weeks' High & Low Weather Summary

High61 °F (Nov 15, 10:55 AM)100% (Nov 14, 9:55 PM)30.27 "Hg (Nov 14, 9:55 PM)
Low25 °F (Nov 23, 6:25 AM)63% (Nov 18, 1:55 AM)29.36 "Hg (Nov 21, 9:25 AM)
Average46 °F86%29.85 "Hg
* Reported Nov 14 4:25 AM — Nov 29 4:55 AM, Tilburg, Weather by CustomWeather, © 2015

Note: Actual official high and low records may vary slightly from our data, if they occured in-between our weather recording intervals... More about our weather records


Tilburg weather history for previous 24 hours

Time TempWeatherWind HumidityBarometerVisibility
4:55 AM
Sun, Nov 29
48 °FPassing clouds.12 mph87%29.74 "HgN/A
4:25 AM48 °FMostly cloudy.10 mph87%29.74 "HgN/A
3:55 AM46 °FPartly cloudy.10 mph93%29.74 "HgN/A
3:25 AM46 °FLight rain. Partly cloudy.12 mph93%29.74 "HgN/A
2:55 AM46 °FDrizzle. Overcast.13 mph87%29.74 "HgN/A
2:25 AM46 °FMostly cloudy.15 mph87%29.74 "HgN/A
1:55 AM46 °FPartly cloudy.14 mph87%29.74 "HgN/A
12:55 AM45 °FPassing clouds.16 mph93%29.74 "HgN/A
12:25 AM46 °FLight rain. Overcast.21 mph82%29.74 "HgN/A
12:01 AM46 °FPartly cloudy.20 mph82%29.74 "HgN/A
10:55 PM
Sat, Nov 28
45 °FPassing clouds.21 mph87%29.74 "HgN/A
10:25 PM45 °FLight rain. Mostly cloudy.22 mph87%29.77 "HgN/A
9:25 PM45 °FDrizzle. Mostly cloudy.18 mph81%29.80 "HgN/A
8:55 PM45 °FPartly cloudy.20 mph81%29.80 "HgN/A
8:25 PM45 °FDrizzle. Mostly cloudy.17 mph81%29.83 "HgN/A
7:55 PM43 °FDrizzle. Mostly cloudy.14 mph93%29.83 "HgN/A
7:25 PM43 °FPassing clouds.15 mph93%29.86 "HgN/A
7:00 PM43 °FLight rain. Partly cloudy.15 mph93%29.86 "HgN/A
6:55 PM43 °FLight rain. Partly cloudy.16 mph87%29.86 "HgN/A
6:25 PM43 °FPassing clouds.16 mph87%29.89 "HgN/A
5:55 PM45 °FPassing clouds.15 mph76%29.89 "HgN/A
5:25 PM43 °FPartly cloudy.15 mph76%29.89 "HgN/A
4:55 PM43 °FPartly cloudy.12 mph76%29.92 "HgN/A
4:25 PM45 °FPartly sunny.9 mph71%29.92 "HgN/A
3:55 PM45 °FPartly sunny.12 mph71%29.92 "HgN/A
3:25 PM45 °FPartly sunny.12 mph71%29.92 "HgN/A
2:55 PM45 °FPassing clouds.12 mph71%29.95 "HgN/A
2:25 PM45 °FPartly sunny.12 mph71%29.95 "HgN/A
1:55 PM46 °FCool.10 mph71%29.92 "HgN/A
1:25 PM46 °FBroken clouds.13 mph66%29.95 "HgN/A
12:55 PM46 °FBroken clouds.12 mph66%29.92 "HgN/A
12:25 PM46 °FPassing clouds.10 mph66%29.92 "HgN/A
11:55 AM46 °FCool.12 mph66%29.92 "HgN/A
11:25 AM45 °FQuite cool.10 mph71%29.92 "HgN/A
10:55 AM45 °FScattered clouds.9 mph71%29.92 "HgN/A
10:25 AM43 °FQuite cool.8 mph76%29.92 "HgN/A
9:55 AM43 °FQuite cool.7 mph76%29.89 "HgN/A
9:25 AM41 °FQuite cool.7 mph81%29.89 "HgN/A
8:55 AM41 °FPassing clouds.9 mph76%29.89 "HgN/A
8:25 AM41 °FPassing clouds.13 mph76%29.86 "HgN/A
7:55 AM41 °FQuite cool.10 mph81%29.86 "HgN/A
7:25 AM43 °FPassing clouds.14 mph81%29.83 "HgN/A
6:55 AM43 °FPassing clouds.16 mph81%29.80 "HgN/A
6:25 AM43 °FOvercast.14 mph87%29.80 "HgN/A
Weather by CustomWeather, © 2015

See weather overviewHow to use our weather pages